Wind_Speed
33 34 34 34 35 36 37 38 38 38 38 40 41 41 40 40 41 41 40 40 39 40 40 40 40 40 40 40 40 41 42 42 43 44 45 45 45 46 46 46 46 45 45 45
34 35 34 34 35 36 37 38 38 38 38 40 41 41 41 41 41 41 41 40 40 40 40 41 41 41 41 41 41 42 42 43 43 44 45 46 47 47 47 47 47 46 46 45
34 34 34 35 36 36 37 38 38 38 39 40 42 42 41 40 41 41 41 41 41 41 41 41 42 42 42 42 42 42 42 43 44 44 45 46 47 47 47 47 48 48 47 47
34 34 34 35 36 37 38 37 38 38 40 40 41 43 40 40 40 41 41 41 41 41 41 41 41 42 42 42 42 42 42 43 44 44 45 45 46 47 47 48 49 49 48 48
35 35 35 36 36 37 38 38 38 38 39 40 39 41 40 39 39 39 40 40 40 40 41 40 40 41 41 41 42 42 43 43 43 44 45 46 47 47 48 49 49 49 49 49
35 35 36 36 35 35 36 37 37 37 38 40 37 39 40 38 38 38 39 40 40 40 40 40 41 41 41 42 42 42 43 43 44 44 45 46 47 47 48 48 48 48 48 48
33 34 35 35 36 35 35 36 37 38 39 39 38 39 40 38 37 37 38 39 40 40 40 41 41 41 41 42 42 43 43 43 44 45 45 45 46 46 46 47 47 46 47 47
34 34 34 35 35 35 35 35 36 37 39 39 39 39 38 37 37 38 38 39 40 40 41 41 41 42 42 42 43 43 43 44 44 44 44 45 45 45 45 46 45 46 47 47
35 35 34 34 34 34 35 35 35 37 38 39 40 40 39 38 38 38 38 39 40 40 40 40 40 40 41 42 43 43 44 44 44 45 45 45 45 45 45 45 45 45 46 47
35 35 34 34 34 34 35 35 34 34 36 38 39 39 39 39 38 38 38 39 39 40 40 40 40 40 41 42 43 43 44 44 44 45 45 46 46 46 45 45 46 46 46 47
34 35 35 35 34 34 34 34 34 35 35 37 38 38 37 38 38 38 38 39 39 39 40 40 40 40 41 42 43 43 43 44 44 44 45 45 45 46 47 46 46 47 47 48
33 34 35 34 34 33 33 33 34 34 35 36 38 39 36 36 37 38 38 39 39 39 39 39 40 41 41 41 42 42 43 43 44 44 44 45 46 47 48 48 48 48 48 49
33 33 34 33 33 33 33 32 33 34 35 36 36 37 35 36 36 37 38 38 38 38 38 39 40 41 41 41 41 42 42 42 43 44 45 45 46 47 48 48 49 49 49 50
33 34 34 33 33 34 33 33 33 33 34 35 36 36 35 36 37 37 38 38 38 38 38 39 39 39 40 40 40 41 42 42 43 44 44 45 46 46 47 47 48 49 50 50
34 35 34 34 35 36 35 34 33 34 34 34 34 35 34 35 37 37 38 38 38 38 37 37 37 38 39 39 39 40 41 42 42 43 43 44 45 45 46 46 47 48 49 49
34 35 35 34 34 35 35 35 34 34 33 34 35 34 34 35 35 36 36 37 36 37 36 36 36 36 37 38 39 39 40 41 41 41 42 43 43 44 45 46 47 47 47 47
34 35 34 33 32 33 33 32 32 32 33 34 35 35 35 36 36 36 36 36 35 35 35 35 35 35 36 36 37 39 40 40 40 40 41 41 42 42 44 45 46 46 46 48
33 32 33 33 33 33 32 32 31 32 33 34 34 35 36 35 35 36 35 35 35 35 35 35 36 36 37 37 38 38 38 39 39 40 39 40 41 42 42 43 44 45 47 48
31 31 31 31 32 32 31 31 32 32 31 31 33 33 34 34 34 34 35 35 36 36 36 36 36 36 36 37 37 37 37 37 37 38 38 39 39 40 41 42 43 44 45 46
30 30 30 30 31 31 31 31 31 32 32 32 33 34 34 34 34 33 34 35 35 36 36 36 36 36 36 36 36 35 35 36 36 37 37 39 39 39 40 41 42 43 43 44
29 29 30 30 31 31 31 30 30 31 32 32 33 33 33 33 34 34 34 35 36 37 37 37 37 37 37 36 36 35 35 36 37 37 37 39 39 40 40 41 41 42 43 43
29 29 29 30 31 31 31 31 31 31 32 32 33 33 33 33 33 33 33 34 34 35 36 36 37 37 37 36 36 36 36 36 37 37 38 39 39 40 40 41 41 42 42 43
28 29 30 30 30 31 31 31 31 32 32 31 31 32 32 32 32 32 32 32 33 33 34 35 35 35 35 35 35 36 36 37 37 37 38 38 38 39 40 40 41 42 42 43
28 29 30 31 31 32 32 32 32 32 32 32 31 31 31 30 30 30 30 31 32 32 33 34 34 34 34 34 34 35 36 36 36 36 36 36 37 38 39 40 40 41 42 42
27 28 29 30 30 31 31 32 32 32 32 31 31 31 30 30 29 29 30 30 31 32 32 32 33 33 33 33 34 34 35 35 35 35 35 36 37 38 38 38 39 39 39 40
26 27 28 29 28 29 29 30 31 31 30 30 30 30 30 30 30 31 31 31 31 31 31 32 32 32 32 32 33 33 33 33 34 34 34 35 35 36 37 37 37 37 38 39
Wind_Direction
274 272 271 272 272 272 272 271 271 270 269 268 267 266 265 265 264 263 263 263 264 264 264 263 263 263 262 261 261 260 261 261 261 261 260 260 260 260 261 260 260 260 260 261
275 274 274 273 272 271 271 271 272 272 272 271 269 268 267 266 265 264 263 263 264 264 264 264 264 263 263 263 262 261 261 261 261 261 261 261 260 260 260 260 260 260 260 260
277 276 275 273 272 272 271 271 272 273 272 271 271 268 267 266 266 265 264 264 264 265 265 264 264 264 264 264 263 262 261 261 261 262 261 261 261 261 261 260 259 260 260 260
277 276 274 273 272 272 271 272 272 273 273 273 272 272 268 268 267 266 265 265 265 265 265 265 265 265 265 264 264 263 262 262 261 261 261 262 261 261 261 261 261 260 260 260
277 276 274 273 273 273 273 272 272 272 273 273 273 273 271 270 269 267 266 265 265 266 266 265 265 265 265 264 264 262 262 262 262 262 262 262 262 262 262 262 262 261 261 261
278 276 275 274 273 274 274 273 272 272 272 272 272 273 273 272 271 269 267 266 266 266 267 266 265 265 265 264 264 263 263 263 262 262 263 264 263 263 262 262 262 262 262 262
278 277 276 274 273 273 274 273 273 273 273 273 273 272 274 274 272 271 269 268 267 267 267 267 266 265 265 264 264 263 264 264 264 264 264 265 264 264 263 262 262 262 262 262
280 278 277 276 275 274 274 273 274 275 275 274 273 273 275 276 274 272 271 269 268 268 268 268 268 266 265 264 264 264 264 264 265 265 264 265 265 264 263 262 263 263 263 263
282 280 278 277 276 274 274 273 274 276 276 275 273 273 273 274 274 273 272 271 270 270 270 271 270 268 267 265 264 264 264 264 264 265 265 264 264 264 263 263 263 263 263 263
282 281 279 278 277 275 274 275 274 274 275 275 275 275 275 273 273 273 272 271 270 270 271 272 271 269 268 266 266 266 264 264 264 263 263 262 263 263 262 263 263 263 263 263
282 282 281 279 278 277 275 274 273 273 274 276 276 276 277 277 277 275 274 273 271 270 271 272 272 270 269 268 267 266 265 264 264 264 264 263 263 262 262 263 264 264 264 264
282 282 282 281 280 279 279 277 273 272 273 274 275 276 277 277 277 276 275 273 272 272 273 273 273 271 270 269 269 268 267 265 264 264 264 265 264 262 262 263 264 264 265 265
282 281 282 281 280 279 278 278 277 274 273 274 275 278 279 278 277 275 274 274 273 273 273 274 274 273 272 271 270 270 268 267 266 265 265 265 265 263 263 264 265 265 266 266
282 281 281 281 282 280 279 279 278 277 276 276 276 278 278 278 277 275 275 274 274 274 275 275 274 273 272 272 272 271 269 269 268 267 267 266 266 265 265 265 266 266 267 266
281 281 281 280 280 279 278 278 278 277 277 278 278 278 279 279 278 276 275 274 274 275 275 275 274 273 273 273 273 272 271 270 269 269 268 267 266 265 265 265 266 267 268 266
281 281 281 280 280 279 278 278 278 276 275 277 278 279 279 279 279 278 276 275 275 276 276 276 275 275 275 274 273 272 272 272 271 270 270 269 268 267 267 267 267 268 267 266
281 281 281 281 279 278 277 279 278 277 277 278 279 279 278 277 277 278 277 276 276 276 277 276 275 276 276 276 276 274 273 272 272 272 271 270 268 268 268 268 268 268 269 268
282 281 281 281 280 278 280 279 279 278 278 278 279 279 278 278 277 276 275 274 275 275 277 277 277 277 278 277 277 276 274 273 273 272 272 271 270 270 270 269 269 269 269 269
282 282 282 283 281 281 281 281 281 281 281 281 281 280 280 279 277 275 274 273 275 277 278 278 279 279 279 279 278 276 274 273 273 272 271 270 271 272 271 271 271 271 269 269
281 281 281 283 283 284 286 285 284 282 282 283 284 284 283 281 279 277 276 276 277 278 279 279 279 279 279 279 277 275 274 274 274 273 272 272 272 273 273 273 273 272 271 270
282 281 281 282 283 285 286 286 286 286 286 285 285 284 284 282 281 280 279 278 279 279 279 278 279 279 279 279 278 276 276 275 275 274 274 274 275 275 275 275 275 274 273 273
282 282 283 283 283 285 288 287 285 285 284 284 284 284 284 284 283 282 281 280 279 280 279 279 279 279 279 278 277 277 277 277 277 276 276 276 276 277 277 276 276 276 275 275
282 283 283 283 284 285 285 285 285 284 284 285 284 284 284 284 284 283 283 282 281 281 281 281 281 281 279 279 279 278 278 278 278 277 278 278 278 278 278 278 278 277 277 277
284 284 282 281 281 283 284 285 286 285 285 285 285 284 285 285 285 284 284 285 284 284 284 284 283 282 281 280 279 279 279 279 278 278 278 277 278 280 281 280 280 279 278 279
288 285 284 283 284 284 284 287 288 287 287 286 285 285 284 285 285 284 285 286 287 288 288 286 286 284 283 282 282 282 281 280 280 280 280 280 281 282 282 281 281 281 280 280
288 288 287 288 288 287 287 287 288 288 287 286 285 285 284 284 284 285 286 287 288 289 289 288 287 286 285 285 285 285 283 282 282 282 282 283 284 284 284 284 283 282 282 281
Height
5690 5690 5690 5690 5689 5689 5688 5688 5688 5689 5688 5688 5689 5690 5692 5693 5694 5694 5696 5697 5698 5698 5698 5698 5699 5699 5699 5699 5700 5701 5701 5702 5703 5704 5705 5707 5709 5710 5712 5714 5715 5717 5719 5721
5682 5682 5682 5681 5680 5679 5679 5678 5679 5679 5679 5678 5678 5680 5681 5682 5683 5684 5685 5686 5687 5687 5688 5688 5688 5688 5688 5688 5689 5689 5690 5691 5692 5693 5694 5695 5696 5698 5699 5701 5703 5705 5707 5709
5672 5674 5673 5672 5671 5670 5670 5670 5670 5670 5669 5668 5668 5669 5671 5672 5672 5673 5674 5675 5676 5676 5677 5677 5677 5677 5677 5678 5678 5678 5679 5679 5680 5681 5682 5683 5684 5686 5687 5689 5691 5693 5695 5697
5663 5664 5663 5662 5661 5661 5661 5661 5660 5659 5658 5658 5659 5657 5662 5662 5662 5663 5664 5664 5665 5665 5665 5666 5666 5666 5666 5667 5667 5667 5667 5668 5668 5669 5670 5671 5672 5674 5676 5677 5679 5680 5682 5684
5655 5655 5654 5653 5653 5652 5651 5651 5650 5649 5648 5648 5648 5647 5651 5651 5651 5652 5653 5654 5654 5654 5654 5655 5655 5655 5655 5655 5656 5656 5656 5656 5657 5658 5659 5660 5661 5662 5663 5665 5666 5668 5669 5671
5646 5645 5644 5644 5644 5642 5642 5641 5641 5639 5638 5637 5640 5638 5638 5641 5641 5642 5642 5643 5643 5643 5643 5644 5644 5644 5644 5644 5644 5645 5645 5646 5646 5647 5647 5648 5649 5650 5651 5652 5654 5655 5657 5658
5637 5636 5635 5634 5634 5634 5632 5632 5630 5628 5627 5628 5630 5628 5629 5631 5630 5631 5631 5632 5632 5633 5633 5633 5633 5633 5633 5633 5633 5634 5634 5635 5635 5635 5636 5636 5637 5637 5638 5640 5641 5643 5644 5645
5627 5627 5626 5625 5625 5624 5623 5622 5621 5620 5618 5619 5619 5618 5621 5621 5620 5620 5620 5621 5621 5622 5622 5622 5621 5622 5622 5622 5622 5622 5623 5623 5624 5624 5624 5624 5625 5626 5627 5628 5629 5630 5631 5633
5618 5617 5617 5615 5614 5614 5613 5613 5613 5611 5609 5609 5609 5610 5611 5610 5610 5610 5610 5610 5611 5611 5611 5610 5610 5610 5610 5610 5610 5611 5611 5612 5612 5612 5613 5613 5613 5614 5615 5616 5617 5618 5619 5620
5608 5608 5608 5606 5605 5604 5604 5604 5603 5601 5599 5598 5599 5600 5601 5600 5600 5600 5600 5600 5600 5599 5599 5599 5599 5599 5599 5598 5598 5598 5599 5599 5600 5600 5601 5602 5602 5603 5603 5604 5605 5606 5607 5607
5599 5598 5598 5597 5596 5596 5595 5594 5592 5592 5591 5590 5589 5592 5591 5590 5590 5589 5589 5588 5588 5588 5588 5588 5588 5588 5587 5587 5587 5586 5586 5587 5588 5588 5589 5590 5590 5591 5592 5592 5593 5594 5594 5595
5591 5589 5588 5588 5587 5586 5585 5585 5584 5583 5582 5581 5579 5583 5582 5581 5579 5578 5578 5577 5577 5577 5577 5577 5577 5576 5576 5575 5575 5575 5575 5575 5576 5576 5577 5577 5578 5579 5579 5580 5580 5581 5581 5582
5582 5581 5579 5578 5580 5578 5576 5576 5575 5573 5572 5571 5570 5573 5572 5571 5569 5568 5567 5567 5567 5567 5566 5566 5565 5564 5564 5564 5563 5563 5563 5563 5563 5564 5564 5565 5565 5566 5566 5567 5568 5568 5568 5568
5573 5571 5571 5571 5568 5567 5567 5567 5565 5564 5563 5562 5562 5563 5563 5561 5559 5558 5557 5556 5556 5556 5556 5555 5554 5553 5552 5552 5552 5551 5551 5551 5551 5551 5552 5552 5552 5553 5554 5554 5554 5554 5554 5554
5563 5562 5561 5561 5559 5558 5557 5557 5556 5555 5554 5553 5553 5553 5553 5550 5549 5548 5547 5546 5546 5546 5545 5544 5543 5542 5541 5541 5540 5540 5539 5539 5538 5539 5539 5539 5540 5540 5541 5541 5541 5540 5540 5540
5553 5552 5551 5551 5550 5548 5548 5548 5546 5545 5544 5544 5543 5543 5543 5540 5539 5538 5537 5536 5536 5535 5534 5533 5532 5531 5530 5530 5529 5528 5527 5527 5526 5526 5526 5526 5527 5527 5527 5527 5527 5527 5526 5526
5544 5543 5541 5541 5540 5538 5538 5539 5538 5537 5536 5535 5534 5534 5532 5531 5529 5528 5527 5527 5526 5525 5524 5523 5522 5521 5520 5519 5517 5517 5516 5515 5515 5514 5514 5514 5514 5514 5514 5514 5514 5513 5513 5513
5535 5533 5531 5531 5530 5529 5533 5530 5529 5528 5527 5525 5524 5523 5521 5520 5520 5518 5517 5517 5516 5516 5514 5513 5512 5510 5509 5508 5506 5505 5504 5504 5503 5502 5502 5502 5502 5502 5501 5501 5500 5500 5500 5499
5526 5525 5523 5522 5520 5520 5522 5521 5520 5519 5518 5517 5514 5513 5512 5510 5510 5509 5508 5507 5506 5505 5504 5503 5501 5500 5499 5497 5495 5494 5493 5492 5491 5491 5490 5490 5490 5489 5489 5488 5487 5487 5486 5486
5518 5517 5516 5514 5512 5512 5514 5512 5510 5510 5509 5508 5505 5504 5502 5501 5501 5501 5499 5497 5496 5495 5494 5493 5491 5490 5488 5487 5485 5484 5482 5481 5481 5480 5479 5478 5478 5477 5476 5475 5475 5474 5473 5472
5511 5509 5508 5506 5504 5504 5505 5504 5502 5502 5501 5498 5496 5494 5493 5492 5491 5490 5489 5487 5486 5485 5484 5482 5481 5479 5478 5476 5474 5473 5472 5471 5470 5469 5468 5467 5466 5465 5464 5463 5462 5461 5460 5459
5502 5501 5500 5499 5498 5499 5497 5495 5494 5493 5491 5489 5487 5485 5484 5483 5481 5480 5479 5477 5476 5474 5473 5471 5470 5469 5467 5465 5464 5463 5461 5460 5459 5458 5457 5456 5455 5453 5452 5451 5450 5448 5447 5445
5495 5494 5492 5492 5492 5490 5488 5486 5485 5483 5482 5480 5478 5477 5475 5474 5473 5471 5469 5468 5466 5465 5463 5461 5460 5458 5456 5455 5453 5452 5450 5449 5448 5447 5446 5444 5443 5442 5441 5439 5437 5436 5434 5433
5488 5486 5484 5483 5483 5481 5480 5477 5476 5474 5473 5471 5470 5468 5467 5465 5464 5462 5460 5459 5457 5455 5453 5451 5450 5448 5446 5444 5443 5441 5440 5438 5437 5436 5435 5433 5432 5431 5429 5427 5425 5423 5421 5420
5481 5478 5476 5474 5474 5472 5471 5469 5467 5465 5463 5462 5460 5459 5458 5456 5455 5453 5452 5450 5448 5446 5444 5442 5440 5438 5436 5435 5433 5431 5429 5428 5427 5425 5424 5422 5421 5419 5417 5415 5413 5411 5409 5407
5474 5471 5468 5467 5466 5464 5463 5461 5459 5457 5455 5453 5451 5450 5448 5447 5446 5444 5443 5441 5439 5437 5435 5433 5431 5429 5427 5425 5423 5421 5419 5418 5416 5415 5413 5412 5410 5408 5406 5404 5402 5399 5397 5395